Hourly Weather Roundup
Issued by NWS Central Illinois

Home | Current Version | Previous Version | Text Only | Print | Product List | Glossary On
Versions: 1 2 3 4 5 6 7 8 9 10 11 12 13 14 15 16 17 18 19 20 21 22 23 24 25 26 27 28 29 30 31 32 33 34 35 36 37 38 39 40 41 42 43 44 45 46 47 48 49 50
000
NZUS43 KILX 280410
HWRILX

Area Weather Roundup
National Weather Service Lincoln IL
1100 PM CDT THU APR 27 2017

NOTE:  "FAIR" indicates few or no clouds below 12,000 feet, with
       no sigificant weather and/or obstructions to visibility.


CITY           SKY/WX    TMP DP  RH WIND       PRES   REMARKS
Bloomington    CLOUDY    47  44  90 S5        29.88R
Champaign      PTCLDY    48  44  86 SE5       29.88R
Danville       CLOUDY    47  44  86 CALM      29.88R
Decatur        CLOUDY    48  46  93 S5        29.89R
Effingham      PTCLDY    46  46 100 CALM      29.92R FOG
Flora          PTCLDY    50  47  91 CALM      29.90R
Galesburg      MOCLDY    44  41  90 CALM      29.85R
Jacksonville   PTCLDY    49  46  90 CALM      29.88R
Lacon          CLEAR     41  40  96 CALM      29.85R
Lawrenceville  PTCLDY    47  47 100 E3        29.91R
Litchfield     CLOUDY    49  46  88 SE3       29.90R
$$


CITY           SKY/WX    TMP DP  RH WIND       PRES   REMARKS
Lincoln        CLOUDY    49  48  93 CALM      29.89R
Macomb         CLOUDY    48  44  87 S7        29.88R
Mattoon        PTCLDY    45  44  97 SE5       29.89R
Mt Carmel AP   PTCLDY    46  44  91 CALM      29.91R
Olney-Noble AP PTCLDY    47  47 100 CALM      29.91R
Paris AP       PTCLDY    46  46  97 CALM      29.91R
Peoria         MOCLDY    47  43  86 S7        29.87R
Pontiac        CLOUDY    46  45  97 SE3       29.87F
Rantoul        CLOUDY    50  47  88 S3        29.88S
Robinson       CLOUDY    45  44  97 CALM      29.92R
Springfield    CLOUDY    51  48  89 CALM      29.89R
Taylorville    CLOUDY    48  46  91 SE5       29.90R
$$

...REGIONAL REPORTS...


CITY           SKY/WX    TMP DP  RH WIND       PRES   REMARKS
Chicago O`Hare PTCLDY    43  35  73 SW9       29.85R
Kankakee       PTCLDY    45  39  79 CALM      29.89S
Moline         PTCLDY    39  36  89 CALM      29.85R
Mount Sterling MOCLDY    49  45  85 S6        29.87R
Mount Vernon   CLOUDY    48  47  96 CALM      29.90R
Pittsfield     PTCLDY    50  47  87 CALM      29.88F
Quincy         CLOUDY    52  45  77 S6        29.86R
Rockford       CLOUDY    43  35  73 SW8       29.86R
$$


CITY           SKY/WX    TMP DP  RH WIND       PRES   REMARKS
Burlington     CLOUDY    48  45  89 S5        29.84R
Cedar Rapids   CLOUDY    35  33  92 S3        29.84R
Des Moines     CLOUDY    47  33  58 NE7       29.83R
Kirksville     CLOUDY    53  46  77 S10       29.83S
Ottumwa        PTCLDY    45  37  73 NE9       29.83R
St Louis       CLOUDY    58  46  64 NE6       29.87R
$$


CITY           SKY/WX    TMP DP  RH WIND       PRES   REMARKS
Terre Haute    CLOUDY    51  45  79 S3        29.91R
Evansville     CLEAR     49  46  90 NE3       29.90S
Indianapolis   PTCLDY    48  42  80 W8        29.90R
Lafayette      CLOUDY    48  42  80 W3        29.90S
Madison        CLOUDY    38  29  70 W10G20    29.79R WCI  31
Milwaukee      CLOUDY    44  32  62 W15G25    29.79R
$$





USA.gov is the U.S. government's official web portal to all federal, state and local government web resources and services.